Time,TemperatureF,DewpointF,PressureIn,WindDirection,WindDirectionDegrees,WindSpeedMPH,WindSpeedGustMPH,Humidity,HourlyPrecipIn,Conditions,Clouds,dailyrainin,SoftwareType,DateUTC
2013-01-23 00:00:00,9.5,-3.8,30.24,NW,304,0.0,0.0,54,0.00,,---,0.00,VWS V14.01,2013-01-23 05:00:00,
2013-01-23 00:01:00,9.5,-3.8,30.24,NW,304,1.0,1.0,54,0.00,,---,0.00,VWS V14.01,2013-01-23 05:01:00,
2013-01-23 00:03:00,9.5,-3.8,30.24,West,264,2.0,3.0,54,0.00,,---,0.00,VWS V14.01,2013-01-23 05:03:00,
2013-01-23 00:08:00,9.5,-3.8,30.24,NW,308,2.0,13.0,54,0.00,,---,0.00,VWS V14.01,2013-01-23 05:08:00,
2013-01-23 00:13:00,9.5,-3.8,30.24,NW,313,0.0,4.0,54,0.00,,---,0.00,VWS V14.01,2013-01-23 05:13:00,
2013-01-23 00:18:00,9.5,-3.8,30.24,West,279,0.0,5.0,54,0.00,,---,0.00,VWS V14.01,2013-01-23 05:18:00,
2013-01-23 00:23:00,9.5,-3.4,30.24,NW,306,2.0,11.0,55,0.00,,---,0.00,VWS V14.01,2013-01-23 05:23:00,
2013-01-23 00:28:00,9.5,-3.4,30.24,West,281,1.0,4.0,55,0.00,,---,0.00,VWS V14.01,2013-01-23 05:28:00,
2013-01-23 00:33:00,9.3,-3.6,30.23,West,273,0.0,11.0,55,0.00,,---,0.00,VWS V14.01,2013-01-23 05:33:00,
2013-01-23 00:38:00,9.3,-3.6,30.23,WNW,296,1.0,4.0,55,0.00,,---,0.00,VWS V14.01,2013-01-23 05:38:00,
2013-01-23 00:43:00,9.3,-3.6,30.23,West,280,0.0,2.0,55,0.00,,---,0.00,VWS V14.01,2013-01-23 05:43:00,
2013-01-23 00:48:00,9.2,-3.7,30.23,WNW,295,2.0,4.0,55,0.00,,---,0.00,VWS V14.01,2013-01-23 05:48:00,
2013-01-23 00:53:00,9.2,-3.7,30.23,NW,312,3.0,10.0,55,0.00,,---,0.00,VWS V14.01,2013-01-23 05:53:00,
2013-01-23 00:58:00,9.2,-3.7,30.23,West,259,0.0,4.0,55,0.00,,---,0.00,VWS V14.01,2013-01-23 05:58:00,
2013-01-23 01:03:00,9.2,-3.3,30.22,West,275,0.0,9.0,56,0.00,,---,0.00,VWS V14.01,2013-01-23 06:03:00,
2013-01-23 01:08:00,9.0,-3.5,30.22,West,281,0.0,6.0,56,0.00,,---,0.00,VWS V14.01,2013-01-23 06:08:00,
2013-01-23 01:13:00,8.8,-3.3,30.22,West,280,0.0,1.0,57,0.00,,---,0.00,VWS V14.01,2013-01-23 06:13:00,
2013-01-23 01:18:00,8.6,-3.5,30.22,West,279,0.0,2.0,57,0.00,,---,0.00,VWS V14.01,2013-01-23 06:18:00,
2013-01-23 01:23:00,8.6,-3.5,30.22,West,265,0.0,3.0,57,0.00,,---,0.00,VWS V14.01,2013-01-23 06:23:00,
2013-01-23 01:28:00,8.4,-3.3,30.22,West,267,0.0,1.0,58,0.00,,---,0.00,VWS V14.01,2013-01-23 06:28:00,
2013-01-23 01:33:00,8.3,-3.1,30.23,West,268,0.0,2.0,59,0.00,,---,0.00,VWS V14.01,2013-01-23 06:33:00,
2013-01-23 01:38:00,8.3,-3.1,30.23,West,267,0.0,1.0,59,0.00,,---,0.00,VWS V14.01,2013-01-23 06:38:00,
2013-01-23 01:43:00,8.3,-3.1,30.23,West,269,0.0,1.0,59,0.00,,---,0.00,VWS V14.01,2013-01-23 06:43:00,
2013-01-23 01:48:00,8.1,-2.9,30.23,West,269,0.0,0.0,60,0.00,,---,0.00,VWS V14.01,2013-01-23 06:48:00,
2013-01-23 01:53:00,7.9,-3.1,30.23,West,269,0.0,0.0,60,0.00,,---,0.00,VWS V14.01,2013-01-23 06:53:00,
2013-01-23 01:58:00,7.9,-3.1,30.23,West,269,0.0,0.0,60,0.00,,---,0.00,VWS V14.01,2013-01-23 06:58:00,
2013-01-23 02:03:00,7.9,-2.7,30.24,West,269,0.0,0.0,61,0.00,,---,0.00,VWS V14.01,2013-01-23 07:03:00,
2013-01-23 02:08:00,7.9,-2.7,30.24,West,267,0.0,0.0,61,0.00,,---,0.00,VWS V14.01,2013-01-23 07:08:00,
2013-01-23 02:13:00,7.6,-2.7,30.24,West,267,0.0,0.0,62,0.00,,---,0.00,VWS V14.01,2013-01-23 07:13:00,
2013-01-23 02:18:00,7.4,-2.2,30.24,West,266,0.0,0.0,64,0.00,,---,0.00,VWS V14.01,2013-01-23 07:18:00,
2013-01-23 02:23:00,7.7,-2.6,30.24,WSW,240,0.0,1.0,62,0.00,,---,0.00,VWS V14.01,2013-01-23 07:23:00,
2013-01-23 02:28:00,7.6,-2.3,30.24,WSW,240,0.0,0.0,63,0.00,,---,0.00,VWS V14.01,2013-01-23 07:28:00,
2013-01-23 02:33:00,7.6,-2.3,30.25,WSW,240,0.0,1.0,63,0.00,,---,0.00,VWS V14.01,2013-01-23 07:33:00,
2013-01-23 02:38:00,7.7,-2.6,30.25,WSW,240,0.0,2.0,62,0.00,,---,0.00,VWS V14.01,2013-01-23 07:38:00,
2013-01-23 02:43:00,7.9,-2.4,30.25,West,264,2.0,6.0,62,0.00,,---,0.00,VWS V14.01,2013-01-23 07:43:00,
2013-01-23 02:48:00,7.9,-2.7,30.25,West,262,1.0,2.0,61,0.00,,---,0.00,VWS V14.01,2013-01-23 07:48:00,
2013-01-23 02:53:00,7.9,-2.4,30.25,West,268,0.0,3.0,62,0.00,,---,0.00,VWS V14.01,2013-01-23 07:53:00,
2013-01-23 02:58:00,7.9,-2.4,30.25,WNW,294,1.0,3.0,62,0.00,,---,0.00,VWS V14.01,2013-01-23 07:58:00,
2013-01-23 03:03:00,7.9,-2.4,30.24,NW,304,2.0,5.0,62,0.00,,---,0.00,VWS V14.01,2013-01-23 08:03:00,
2013-01-23 03:08:00,8.1,-2.2,30.24,WNW,284,0.0,1.0,62,0.00,,---,0.00,VWS V14.01,2013-01-23 08:08:00,
2013-01-23 03:13:00,8.1,-2.5,30.24,WNW,286,0.0,0.0,61,0.00,,---,0.00,VWS V14.01,2013-01-23 08:13:00,
2013-01-23 03:18:00,8.1,-2.5,30.24,West,277,0.0,2.0,61,0.00,,---,0.00,VWS V14.01,2013-01-23 08:18:00,
2013-01-23 03:23:00,8.1,-2.2,30.24,WNW,300,0.0,3.0,62,0.00,,---,0.00,VWS V14.01,2013-01-23 08:23:00,
2013-01-23 03:28:00,8.1,-2.5,30.24,WNW,296,0.0,2.0,61,0.00,,---,0.00,VWS V14.01,2013-01-23 08:28:00,
2013-01-23 03:33:00,7.9,-2.4,30.24,West,268,0.0,5.0,62,0.00,,---,0.00,VWS V14.01,2013-01-23 08:33:00,
2013-01-23 03:38:00,7.9,-2.4,30.24,West,279,2.0,2.0,62,0.00,,---,0.00,VWS V14.01,2013-01-23 08:38:00,
2013-01-23 03:43:00,7.9,-2.4,30.24,West,271,2.0,3.0,62,0.00,,---,0.00,VWS V14.01,2013-01-23 08:43:00,
2013-01-23 03:48:00,7.7,-2.6,30.24,West,272,1.0,2.0,62,0.00,,---,0.00,VWS V14.01,2013-01-23 08:48:00,
2013-01-23 03:53:00,7.7,-2.3,30.24,West,273,0.0,4.0,63,0.00,,---,0.00,VWS V14.01,2013-01-23 08:53:00,
2013-01-23 03:58:00,7.7,-2.3,30.24,West,266,2.0,2.0,63,0.00,,---,0.00,VWS V14.01,2013-01-23 08:58:00,
2013-01-23 04:03:00,7.7,-2.3,30.24,West,278,0.0,3.0,63,0.00,,---,0.00,VWS V14.01,2013-01-23 09:03:00,
2013-01-23 04:08:00,7.6,-2.0,30.24,West,278,0.0,1.0,64,0.00,,---,0.00,VWS V14.01,2013-01-23 09:08:00,
2013-01-23 04:13:00,7.6,-2.0,30.24,WSW,237,4.0,4.0,64,0.00,,---,0.00,VWS V14.01,2013-01-23 09:13:00,
2013-01-23 04:18:00,7.6,-2.0,30.24,WNW,289,1.0,4.0,64,0.00,,---,0.00,VWS V14.01,2013-01-23 09:18:00,
2013-01-23 04:23:00,7.7,-1.9,30.24,WNW,297,0.0,5.0,64,0.00,,---,0.00,VWS V14.01,2013-01-23 09:23:00,
2013-01-23 04:28:00,7.7,-2.3,30.24,West,275,0.0,5.0,63,0.00,,---,0.00,VWS V14.01,2013-01-23 09:28:00,
2013-01-23 04:33:00,7.7,-1.9,30.24,West,273,0.0,5.0,64,0.00,,---,0.00,VWS V14.01,2013-01-23 09:33:00,
2013-01-23 04:38:00,7.6,-2.0,30.24,West,273,0.0,3.0,64,0.00,,---,0.00,VWS V14.01,2013-01-23 09:38:00,
2013-01-23 04:43:00,7.6,-2.0,30.24,West,272,0.0,2.0,64,0.00,,---,0.00,VWS V14.01,2013-01-23 09:43:00,
2013-01-23 04:48:00,7.6,-2.0,30.24,West,267,3.0,3.0,64,0.00,,---,0.00,VWS V14.01,2013-01-23 09:48:00,
2013-01-23 04:53:00,7.6,-1.7,30.24,WNW,298,2.0,9.0,65,0.00,,---,0.00,VWS V14.01,2013-01-23 09:53:00,
2013-01-23 04:58:00,7.6,-1.7,30.24,WNW,284,0.0,3.0,65,0.00,,---,0.00,VWS V14.01,2013-01-23 09:58:00,
2013-01-23 05:03:00,7.6,-1.7,30.24,WNW,295,2.0,5.0,65,0.00,,---,0.00,VWS V14.01,2013-01-23 10:03:00,
2013-01-23 05:08:00,7.7,-1.9,30.24,West,276,0.0,3.0,64,0.00,,---,0.00,VWS V14.01,2013-01-23 10:08:00,
2013-01-23 05:13:00,7.6,-2.0,30.24,WNW,283,5.0,7.0,64,0.00,,---,0.00,VWS V14.01,2013-01-23 10:13:00,
2013-01-23 05:18:00,7.7,-1.9,30.24,West,268,3.0,9.0,64,0.00,,---,0.00,VWS V14.01,2013-01-23 10:18:00,
2013-01-23 05:23:00,7.6,-1.7,30.24,West,281,4.0,4.0,65,0.00,,---,0.00,VWS V14.01,2013-01-23 10:23:00,
2013-01-23 05:28:00,7.4,-1.9,30.24,West,275,2.0,3.0,65,0.00,,---,0.00,VWS V14.01,2013-01-23 10:28:00,
2013-01-23 05:33:00,7.4,-1.9,30.24,West,275,2.0,5.0,65,0.00,,---,0.00,VWS V14.01,2013-01-23 10:33:00,
2013-01-23 05:38:00,7.6,-2.0,30.24,WNW,292,5.0,7.0,64,0.00,,---,0.00,VWS V14.01,2013-01-23 10:38:00,
2013-01-23 05:43:00,7.6,-2.0,30.24,West,266,1.0,7.0,64,0.00,,---,0.00,VWS V14.01,2013-01-23 10:43:00,
2013-01-23 05:48:00,7.6,-2.0,30.25,WNW,300,1.0,5.0,64,0.00,,---,0.00,VWS V14.01,2013-01-23 10:48:00,
2013-01-23 05:53:00,7.4,-2.5,30.25,West,279,2.0,7.0,63,0.00,,---,0.00,VWS V14.01,2013-01-23 10:53:00,
2013-01-23 05:58:00,7.6,-2.3,30.25,West,266,0.0,6.0,63,0.00,,---,0.00,VWS V14.01,2013-01-23 10:58:00,
2013-01-23 06:03:00,7.6,-2.3,30.24,NW,311,4.0,4.0,63,0.00,,---,0.00,VWS V14.01,2013-01-23 11:03:00,
2013-01-23 06:08:00,7.4,-2.9,30.24,WNW,285,3.0,9.0,62,0.00,,---,0.00,VWS V14.01,2013-01-23 11:08:00,
2013-01-23 06:13:00,7.4,-2.9,30.24,West,280,3.0,3.0,62,0.00,,---,0.00,VWS V14.01,2013-01-23 11:13:00,
2013-01-23 06:18:00,7.4,-2.9,30.24,West,272,0.0,3.0,62,0.00,,---,0.00,VWS V14.01,2013-01-23 11:18:00,
2013-01-23 06:23:00,7.4,-3.2,30.24,WNW,297,6.0,6.0,61,0.00,,---,0.00,VWS V14.01,2013-01-23 11:23:00,
2013-01-23 06:28:00,7.4,-3.2,30.24,WNW,284,0.0,5.0,61,0.00,,---,0.00,VWS V14.01,2013-01-23 11:28:00,
2013-01-23 06:33:00,7.2,-3.4,30.25,NW,315,2.0,3.0,61,0.00,,---,0.00,VWS V14.01,2013-01-23 11:33:00,
2013-01-23 06:38:00,7.2,-3.1,30.25,West,271,1.0,3.0,62,0.00,,---,0.00,VWS V14.01,2013-01-23 11:38:00,
2013-01-23 06:43:00,7.2,-3.4,30.25,West,269,0.0,4.0,61,0.00,,---,0.00,VWS V14.01,2013-01-23 11:43:00,
2013-01-23 06:48:00,7.2,-3.4,30.26,WNW,302,2.0,4.0,61,0.00,,---,0.00,VWS V14.01,2013-01-23 11:48:00,
2013-01-23 06:53:00,7.2,-3.4,30.26,West,281,1.0,5.0,61,0.00,,---,0.00,VWS V14.01,2013-01-23 11:53:00,
2013-01-23 06:58:00,7.2,-3.8,30.26,West,278,4.0,11.0,60,0.00,,---,0.00,VWS V14.01,2013-01-23 11:58:00,
2013-01-23 07:03:00,7.2,-3.8,30.26,WSW,251,0.0,3.0,60,0.00,,---,0.00,VWS V14.01,2013-01-23 12:03:00,
2013-01-23 07:08:00,7.2,-3.8,30.26,West,265,0.0,4.0,60,0.00,,---,0.00,VWS V14.01,2013-01-23 12:08:00,
2013-01-23 07:13:00,7.2,-3.8,30.26,West,276,1.0,6.0,60,0.00,,---,0.00,VWS V14.01,2013-01-23 12:13:00,
2013-01-23 07:18:00,7.2,-3.8,30.26,West,278,0.0,3.0,60,0.00,,---,0.00,VWS V14.01,2013-01-23 12:18:00,
2013-01-23 07:23:00,7.2,-3.8,30.26,West,268,0.0,3.0,60,0.00,,---,0.00,VWS V14.01,2013-01-23 12:23:00,
2013-01-23 07:28:00,7.2,-3.8,30.26,West,273,0.0,4.0,60,0.00,,---,0.00,VWS V14.01,2013-01-23 12:28:00,
2013-01-23 07:33:00,7.2,-3.8,30.26,West,275,0.0,2.0,60,0.00,,---,0.00,VWS V14.01,2013-01-23 12:33:00,
2013-01-23 07:38:00,7.0,-3.9,30.26,West,273,0.0,4.0,60,0.00,,---,0.00,VWS V14.01,2013-01-23 12:38:00,
2013-01-23 07:43:00,7.0,-3.9,30.26,WSW,242,0.0,9.0,60,0.00,,---,0.00,VWS V14.01,2013-01-23 12:43:00,
2013-01-23 07:48:00,7.2,-4.1,30.27,West,271,0.0,5.0,59,0.00,,---,0.00,VWS V14.01,2013-01-23 12:48:00,
2013-01-23 07:53:00,7.2,-4.1,30.27,West,263,0.0,5.0,59,0.00,,---,0.00,VWS V14.01,2013-01-23 12:53:00,
2013-01-23 07:58:00,7.2,-4.1,30.27,West,278,1.0,8.0,59,0.00,,---,0.00,VWS V14.01,2013-01-23 12:58:00,
2013-01-23 08:03:00,7.2,-4.1,30.27,West,277,0.0,5.0,59,0.00,,---,0.00,VWS V14.01,2013-01-23 13:03:00,
2013-01-23 08:08:00,7.2,-4.5,30.27,WSW,257,3.0,4.0,58,0.00,,---,0.00,VWS V14.01,2013-01-23 13:08:00,
2013-01-23 08:13:00,7.4,-3.9,30.27,West,275,0.0,3.0,59,0.00,,---,0.00,VWS V14.01,2013-01-23 13:13:00,
2013-01-23 08:18:00,7.4,-4.3,30.27,West,279,0.0,3.0,58,0.00,,---,0.00,VWS V14.01,2013-01-23 13:18:00,
2013-01-23 08:23:00,7.6,-4.1,30.27,WSW,257,1.0,10.0,58,0.00,,---,0.00,VWS V14.01,2013-01-23 13:23:00,
2013-01-23 08:28:00,7.7,-4.0,30.27,West,274,0.0,3.0,58,0.00,,---,0.00,VWS V14.01,2013-01-23 13:28:00,
2013-01-23 08:33:00,7.9,-4.2,30.27,West,279,2.0,7.0,57,0.00,,---,0.00,VWS V14.01,2013-01-23 13:33:00,
2013-01-23 08:38:00,8.3,-4.2,30.27,West,263,4.0,7.0,56,0.00,,---,0.00,VWS V14.01,2013-01-23 13:38:00,
2013-01-23 08:43:00,8.6,-3.9,30.27,West,265,1.0,7.0,56,0.00,,---,0.00,VWS V14.01,2013-01-23 13:43:00,
2013-01-23 08:48:00,8.8,-4.1,30.28,West,264,9.0,10.0,55,0.00,,---,0.00,VWS V14.01,2013-01-23 13:48:00,
2013-01-23 08:53:00,9.0,-3.9,30.28,West,270,2.0,12.0,55,0.00,,---,0.00,VWS V14.01,2013-01-23 13:53:00,
2013-01-23 08:58:00,9.2,-4.1,30.28,West,272,4.0,14.0,54,0.00,,---,0.00,VWS V14.01,2013-01-23 13:58:00,
2013-01-23 09:03:00,9.2,-4.1,30.29,West,269,6.0,13.0,54,0.00,,---,0.00,VWS V14.01,2013-01-23 14:03:00,
2013-01-23 09:08:00,9.3,-4.0,30.29,WNW,288,7.0,10.0,54,0.00,,---,0.00,VWS V14.01,2013-01-23 14:08:00,
2013-01-23 09:13:00,9.3,-4.0,30.29,West,267,5.0,19.0,54,0.00,,---,0.00,VWS V14.01,2013-01-23 14:13:00,
2013-01-23 09:18:00,9.5,-4.6,30.28,West,275,2.0,11.0,52,0.00,,---,0.00,VWS V14.01,2013-01-23 14:18:00,
2013-01-23 09:23:00,9.7,-4.0,30.28,West,271,9.0,10.0,53,0.00,,---,0.00,VWS V14.01,2013-01-23 14:23:00,
2013-01-23 09:28:00,9.7,-4.0,30.28,NNW,329,6.0,14.0,53,0.00,,---,0.00,VWS V14.01,2013-01-23 14:28:00,
2013-01-23 09:33:00,9.7,-4.0,30.29,WNW,291,3.0,9.0,53,0.00,,---,0.00,VWS V14.01,2013-01-23 14:33:00,
2013-01-23 09:38:00,10.0,-3.3,30.29,NW,304,7.0,11.0,54,0.00,,---,0.00,VWS V14.01,2013-01-23 14:38:00,
2013-01-23 09:43:00,10.4,-3.3,30.29,West,260,8.0,14.0,53,0.00,,---,0.00,VWS V14.01,2013-01-23 14:43:00,
2013-01-23 09:48:00,10.2,-3.9,30.29,WNW,288,4.0,12.0,52,0.00,,---,0.00,VWS V14.01,2013-01-23 14:48:00,
2013-01-23 09:53:00,10.5,-3.6,30.29,WNW,282,9.0,11.0,52,0.00,,---,0.00,VWS V14.01,2013-01-23 14:53:00,
2013-01-23 09:58:00,11.1,-3.1,30.29,West,279,4.0,9.0,52,0.00,,---,0.00,VWS V14.01,2013-01-23 14:58:00,
2013-01-23 10:03:00,11.1,-3.5,30.29,NNW,340,0.0,5.0,51,0.00,,---,0.00,VWS V14.01,2013-01-23 15:03:00,
2013-01-23 10:08:00,11.4,-3.2,30.29,West,277,0.0,11.0,51,0.00,,---,0.00,VWS V14.01,2013-01-23 15:08:00,
2013-01-23 10:13:00,11.1,-4.8,30.29,NW,311,4.0,14.0,48,0.00,,---,0.00,VWS V14.01,2013-01-23 15:13:00,
2013-01-23 10:18:00,11.4,-3.6,30.29,NW,320,8.0,9.0,50,0.00,,---,0.00,VWS V14.01,2013-01-23 15:18:00,
2013-01-23 10:23:00,11.4,-3.6,30.29,WNW,290,4.0,7.0,50,0.00,,---,0.00,VWS V14.01,2013-01-23 15:23:00,
2013-01-23 10:28:00,11.7,-4.2,30.29,North,5,5.0,13.0,48,0.00,,---,0.00,VWS V14.01,2013-01-23 15:28:00,
2013-01-23 10:33:00,12.4,-2.3,30.29,NW,315,11.0,12.0,51,0.00,,---,0.00,VWS V14.01,2013-01-23 15:33:00,
2013-01-23 10:38:00,12.3,-4.1,30.29,NW,309,4.0,11.0,47,0.00,,---,0.00,VWS V14.01,2013-01-23 15:38:00,
2013-01-23 10:43:00,12.9,-2.7,30.29,WNW,294,0.0,6.0,49,0.00,,---,0.00,VWS V14.01,2013-01-23 15:43:00,
2013-01-23 10:48:00,13.5,-3.0,30.28,West,263,7.0,9.0,47,0.00,,---,0.00,VWS V14.01,2013-01-23 15:48:00,
2013-01-23 10:53:00,14.0,-1.6,30.28,West,270,5.0,10.0,49,0.00,,---,0.00,VWS V14.01,2013-01-23 15:53:00,
2013-01-23 10:58:00,13.5,-3.9,30.28,West,261,9.0,15.0,45,0.00,,---,0.00,VWS V14.01,2013-01-23 15:58:00,
2013-01-23 11:03:00,13.3,-4.1,30.28,NW,309,5.0,11.0,45,0.00,,---,0.00,VWS V14.01,2013-01-23 16:03:00,
2013-01-23 11:08:00,13.3,-4.5,30.28,NW,315,0.0,9.0,44,0.00,,---,0.00,VWS V14.01,2013-01-23 16:08:00,
2013-01-23 11:13:00,12.9,-4.4,30.28,WNW,301,4.0,11.0,45,0.00,,---,0.00,VWS V14.01,2013-01-23 16:13:00,
2013-01-23 11:18:00,12.4,-4.4,30.26,WNW,299,0.0,8.0,46,0.00,,---,0.00,VWS V14.01,2013-01-23 16:18:00,
2013-01-23 11:23:00,12.8,-3.6,30.26,North,5,6.0,7.0,47,0.00,,---,0.00,VWS V14.01,2013-01-23 16:23:00,
2013-01-23 11:28:00,12.9,-3.5,30.26,West,275,1.0,9.0,47,0.00,,---,0.00,VWS V14.01,2013-01-23 16:28:00,
2013-01-23 11:33:00,12.9,-4.0,30.26,West,271,6.0,7.0,46,0.00,,---,0.00,VWS V14.01,2013-01-23 16:33:00,
2013-01-23 11:38:00,13.5,-3.0,30.26,NW,311,6.0,9.0,47,0.00,,---,0.00,VWS V14.01,2013-01-23 16:38:00,
2013-01-23 11:43:00,13.6,-3.3,30.26,West,279,0.0,11.0,46,0.00,,---,0.00,VWS V14.01,2013-01-23 16:43:00,
2013-01-23 11:48:00,13.8,-3.6,30.24,West,277,2.0,7.0,45,0.00,,---,0.00,VWS V14.01,2013-01-23 16:48:00,
2013-01-23 11:53:00,14.4,-2.1,30.24,NW,309,3.0,6.0,47,0.00,,---,0.00,VWS V14.01,2013-01-23 16:53:00,
2013-01-23 11:58:00,13.3,-4.5,30.24,NNW,340,0.0,7.0,44,0.00,,---,0.00,VWS V14.01,2013-01-23 16:58:00,
2013-01-23 12:03:00,13.6,-4.2,30.23,NW,314,3.0,7.0,44,0.00,,---,0.00,VWS V14.01,2013-01-23 17:03:00,
2013-01-23 12:08:00,14.1,-4.8,30.23,West,277,2.0,6.0,42,0.00,,---,0.00,VWS V14.01,2013-01-23 17:08:00,
2013-01-23 12:13:00,13.5,-4.8,30.23,WNW,284,3.0,5.0,43,0.00,,---,0.00,VWS V14.01,2013-01-23 17:13:00,
2013-01-23 12:18:00,13.8,-4.1,30.23,West,279,3.0,5.0,44,0.00,,---,0.00,VWS V14.01,2013-01-23 17:18:00,
2013-01-23 12:23:00,15.1,-4.3,30.23,WSW,248,2.0,17.0,41,0.00,,---,0.00,VWS V14.01,2013-01-23 17:23:00,
2013-01-23 12:28:00,14.8,-4.6,30.23,NW,317,6.0,13.0,41,0.00,,---,0.00,VWS V14.01,2013-01-23 17:28:00,
2013-01-23 12:33:00,14.8,-5.1,30.21,WSW,252,5.0,11.0,40,0.00,,---,0.00,VWS V14.01,2013-01-23 17:33:00,
2013-01-23 12:38:00,15.4,-4.1,30.21,NW,317,5.0,12.0,41,0.00,,---,0.00,VWS V14.01,2013-01-23 17:38:00,
2013-01-23 12:43:00,15.9,-4.1,30.21,NW,315,4.0,6.0,40,0.00,,---,0.00,VWS V14.01,2013-01-23 17:43:00,
2013-01-23 12:48:00,15.7,-5.4,30.21,NW,304,3.0,8.0,38,0.00,,---,0.00,VWS V14.01,2013-01-23 17:48:00,
2013-01-23 12:53:00,16.2,-4.9,30.21,WNW,300,0.0,7.0,38,0.00,,---,0.00,VWS V14.01,2013-01-23 17:53:00,
2013-01-23 12:58:00,16.2,-4.4,30.21,WNW,286,1.0,5.0,39,0.00,,---,0.00,VWS V14.01,2013-01-23 17:58:00,
2013-01-23 13:03:00,15.6,-4.9,30.20,WSW,254,0.0,6.0,39,0.00,,---,0.00,VWS V14.01,2013-01-23 18:03:00,
2013-01-23 13:08:00,15.6,-4.9,30.20,NW,306,4.0,5.0,39,0.00,,---,0.00,VWS V14.01,2013-01-23 18:08:00,
2013-01-23 13:13:00,15.1,-5.4,30.20,WNW,288,5.0,11.0,39,0.00,,---,0.00,VWS V14.01,2013-01-23 18:13:00,
2013-01-23 13:18:00,16.7,-3.4,30.19,WNW,286,6.0,10.0,40,0.00,,---,0.00,VWS V14.01,2013-01-23 18:18:00,
2013-01-23 13:23:00,17.2,-4.0,30.19,WNW,286,1.0,9.0,38,0.00,,---,0.00,VWS V14.01,2013-01-23 18:23:00,
2013-01-23 13:28:00,17.8,-4.6,30.19,NW,304,7.0,9.0,36,0.00,,---,0.00,VWS V14.01,2013-01-23 18:28:00,
2013-01-23 13:33:00,17.8,-4.1,30.19,NW,306,5.0,5.0,37,0.00,,---,0.00,VWS V14.01,2013-01-23 18:33:00,
2013-01-23 13:38:00,17.2,-4.6,30.19,NW,311,6.0,11.0,37,0.00,,---,0.00,VWS V14.01,2013-01-23 18:38:00,
2013-01-23 13:43:00,17.2,-5.2,30.19,West,267,4.0,8.0,36,0.00,,---,0.00,VWS V14.01,2013-01-23 18:43:00,
2013-01-23 13:48:00,17.2,-4.0,30.18,West,276,0.0,7.0,38,0.00,,---,0.00,VWS V14.01,2013-01-23 18:48:00,
2013-01-23 13:53:00,17.0,-5.3,30.18,WSW,250,13.0,14.0,36,0.00,,---,0.00,VWS V14.01,2013-01-23 18:53:00,
2013-01-23 13:58:00,17.2,-4.6,30.18,NW,304,3.0,9.0,37,0.00,,---,0.00,VWS V14.01,2013-01-23 18:58:00,
2013-01-23 14:03:00,16.9,-6.6,30.18,WSW,252,7.0,14.0,34,0.00,,---,0.00,VWS V14.01,2013-01-23 19:03:00,
2013-01-23 14:08:00,16.9,-5.4,30.18,West,279,3.0,14.0,36,0.00,,---,0.00,VWS V14.01,2013-01-23 19:08:00,
2013-01-23 14:13:00,17.0,-5.9,30.18,West,277,5.0,12.0,35,0.00,,---,0.00,VWS V14.01,2013-01-23 19:13:00,
2013-01-23 14:18:00,16.9,-6.0,30.18,WNW,292,1.0,9.0,35,0.00,,---,0.00,VWS V14.01,2013-01-23 19:18:00,
2013-01-23 14:23:00,17.8,-4.6,30.18,NW,308,3.0,10.0,36,0.00,,---,0.00,VWS V14.01,2013-01-23 19:23:00,
2013-01-23 14:28:00,18.3,-5.4,30.18,WNW,284,7.0,12.0,34,0.00,,---,0.00,VWS V14.01,2013-01-23 19:28:00,
2013-01-23 14:33:00,19.2,-5.2,30.18,West,265,2.0,9.0,33,0.00,,---,0.00,VWS V14.01,2013-01-23 19:33:00,
2013-01-23 14:38:00,19.1,-5.3,30.18,WNW,295,3.0,7.0,33,0.00,,---,0.00,VWS V14.01,2013-01-23 19:38:00,
2013-01-23 14:43:00,18.8,-6.2,30.18,West,272,0.0,10.0,32,0.00,,---,0.00,VWS V14.01,2013-01-23 19:43:00,
2013-01-23 14:48:00,18.8,-5.5,30.17,WNW,296,3.0,7.0,33,0.00,,---,0.00,VWS V14.01,2013-01-23 19:48:00,
2013-01-23 14:53:00,18.4,-5.9,30.17,West,269,5.0,6.0,33,0.00,,---,0.00,VWS V14.01,2013-01-23 19:53:00,
2013-01-23 14:58:00,18.0,-6.2,30.17,WNW,302,2.0,5.0,33,0.00,,---,0.00,VWS V14.01,2013-01-23 19:58:00,
2013-01-23 15:03:00,18.0,-5.6,30.16,NW,313,5.0,9.0,34,0.00,,---,0.00,VWS V14.01,2013-01-23 20:03:00,
2013-01-23 15:08:00,18.3,-6.0,30.16,WNW,294,0.0,11.0,33,0.00,,---,0.00,VWS V14.01,2013-01-23 20:08:00,
2013-01-23 15:13:00,18.4,-5.3,30.16,NW,319,4.0,12.0,34,0.00,,---,0.00,VWS V14.01,2013-01-23 20:13:00,
2013-01-23 15:18:00,18.9,-5.4,30.16,WNW,282,2.0,4.0,33,0.00,,---,0.00,VWS V14.01,2013-01-23 20:18:00,
2013-01-23 15:23:00,19.2,-6.5,30.16,West,265,8.0,10.0,31,0.00,,---,0.00,VWS V14.01,2013-01-23 20:23:00,
2013-01-23 15:28:00,19.2,-6.5,30.16,WNW,303,2.0,13.0,31,0.00,,---,0.00,VWS V14.01,2013-01-23 20:28:00,
2013-01-23 15:33:00,19.5,-6.2,30.16,West,275,0.0,9.0,31,0.00,,---,0.00,VWS V14.01,2013-01-23 20:33:00,
2013-01-23 15:38:00,19.2,-6.5,30.16,NW,307,0.0,7.0,31,0.00,,---,0.00,VWS V14.01,2013-01-23 20:38:00,
2013-01-23 15:43:00,18.9,-6.7,30.16,NNW,327,5.0,9.0,31,0.00,,---,0.00,VWS V14.01,2013-01-23 20:43:00,
2013-01-23 15:48:00,18.8,-6.8,30.16,NW,309,0.0,6.0,31,0.00,,---,0.00,VWS V14.01,2013-01-23 20:48:00,
2013-01-23 15:53:00,18.3,-6.6,30.16,West,276,0.0,9.0,32,0.00,,---,0.00,VWS V14.01,2013-01-23 20:53:00,
2013-01-23 15:58:00,18.0,-5.6,30.16,North,355,2.0,5.0,34,0.00,,---,0.00,VWS V14.01,2013-01-23 20:58:00,
2013-01-23 16:03:00,18.1,-6.2,30.17,WSW,255,4.0,6.0,33,0.00,,---,0.00,VWS V14.01,2013-01-23 21:03:00,
2013-01-23 16:08:00,18.1,-5.5,30.17,West,265,9.0,9.0,34,0.00,,---,0.00,VWS V14.01,2013-01-23 21:08:00,
2013-01-23 16:13:00,18.3,-6.0,30.17,West,261,7.0,12.0,33,0.00,,---,0.00,VWS V14.01,2013-01-23 21:13:00,
2013-01-23 16:18:00,18.1,-4.9,30.16,WNW,292,9.0,9.0,35,0.00,,---,0.00,VWS V14.01,2013-01-23 21:18:00,
2013-01-23 16:23:00,18.1,-4.9,30.16,West,271,3.0,9.0,35,0.00,,---,0.00,VWS V14.01,2013-01-23 21:23:00,
2013-01-23 16:28:00,18.1,-4.9,30.16,NW,305,5.0,9.0,35,0.00,,---,0.00,VWS V14.01,2013-01-23 21:28:00,
2013-01-23 16:33:00,18.1,-4.9,30.16,West,275,0.0,5.0,35,0.00,,---,0.00,VWS V14.01,2013-01-23 21:33:00,
2013-01-23 16:38:00,18.1,-5.5,30.16,WSW,251,0.0,6.0,34,0.00,,---,0.00,VWS V14.01,2013-01-23 21:38:00,
2013-01-23 16:43:00,18.0,-5.0,30.16,West,277,4.0,9.0,35,0.00,,---,0.00,VWS V14.01,2013-01-23 21:43:00,
2013-01-23 16:48:00,18.0,-5.0,30.15,West,276,2.0,6.0,35,0.00,,---,0.00,VWS V14.01,2013-01-23 21:48:00,
2013-01-23 16:53:00,18.0,-5.0,30.15,West,265,2.0,6.0,35,0.00,,---,0.00,VWS V14.01,2013-01-23 21:53:00,
2013-01-23 16:58:00,18.0,-5.0,30.15,West,276,1.0,6.0,35,0.00,,---,0.00,VWS V14.01,2013-01-23 21:58:00,
2013-01-23 17:03:00,18.0,-5.0,30.16,West,280,4.0,6.0,35,0.00,,---,0.00,VWS V14.01,2013-01-23 22:03:00,
2013-01-23 17:08:00,18.0,-5.0,30.16,West,269,0.0,5.0,35,0.00,,---,0.00,VWS V14.01,2013-01-23 22:08:00,
2013-01-23 17:13:00,18.0,-5.0,30.16,West,266,0.0,10.0,35,0.00,,---,0.00,VWS V14.01,2013-01-23 22:13:00,
2013-01-23 17:18:00,18.0,-5.0,30.16,West,275,0.0,6.0,35,0.00,,---,0.00,VWS V14.01,2013-01-23 22:18:00,
2013-01-23 17:23:00,18.0,-5.0,30.16,WNW,286,2.0,10.0,35,0.00,,---,0.00,VWS V14.01,2013-01-23 22:23:00,
2013-01-23 17:28:00,18.0,-5.6,30.16,West,277,1.0,4.0,34,0.00,,---,0.00,VWS V14.01,2013-01-23 22:28:00,
2013-01-23 17:33:00,18.0,-5.6,30.16,West,269,4.0,8.0,34,0.00,,---,0.00,VWS V14.01,2013-01-23 22:33:00,
2013-01-23 17:38:00,17.8,-5.2,30.16,West,275,2.0,5.0,35,0.00,,---,0.00,VWS V14.01,2013-01-23 22:38:00,
2013-01-23 17:43:00,17.8,-5.2,30.16,West,281,0.0,4.0,35,0.00,,---,0.00,VWS V14.01,2013-01-23 22:43:00,
2013-01-23 17:48:00,17.8,-5.2,30.16,WNW,283,0.0,6.0,35,0.00,,---,0.00,VWS V14.01,2013-01-23 22:48:00,
2013-01-23 17:53:00,17.8,-5.2,30.16,WNW,303,3.0,3.0,35,0.00,,---,0.00,VWS V14.01,2013-01-23 22:53:00,
2013-01-23 17:58:00,17.7,-5.3,30.16,WNW,294,2.0,4.0,35,0.00,,---,0.00,VWS V14.01,2013-01-23 22:58:00,
2013-01-23 18:03:00,17.7,-4.7,30.16,WNW,298,3.0,6.0,36,0.00,,---,0.00,VWS V14.01,2013-01-23 23:03:00,
2013-01-23 18:08:00,17.7,-4.7,30.16,WNW,282,0.0,3.0,36,0.00,,---,0.00,VWS V14.01,2013-01-23 23:08:00,
2013-01-23 18:13:00,17.7,-4.1,30.16,West,269,0.0,6.0,37,0.00,,---,0.00,VWS V14.01,2013-01-23 23:13:00,
2013-01-23 18:18:00,17.7,-4.1,30.16,West,269,5.0,5.0,37,0.00,,---,0.00,VWS V14.01,2013-01-23 23:18:00,
2013-01-23 18:23:00,17.5,-4.3,30.16,West,275,0.0,2.0,37,0.00,,---,0.00,VWS V14.01,2013-01-23 23:23:00,
2013-01-23 18:28:00,17.5,-3.8,30.16,West,271,0.0,5.0,38,0.00,,---,0.00,VWS V14.01,2013-01-23 23:28:00,
2013-01-23 18:33:00,17.5,-3.8,30.15,West,275,0.0,3.0,38,0.00,,---,0.00,VWS V14.01,2013-01-23 23:33:00,
2013-01-23 18:38:00,17.5,-3.8,30.15,West,275,0.0,3.0,38,0.00,,---,0.00,VWS V14.01,2013-01-23 23:38:00,
2013-01-23 18:43:00,17.5,-3.8,30.15,West,281,0.0,1.0,38,0.00,,---,0.00,VWS V14.01,2013-01-23 23:43:00,
2013-01-23 18:48:00,17.5,-3.8,30.15,West,281,0.0,1.0,38,0.00,,---,0.00,VWS V14.01,2013-01-23 23:48:00,
2013-01-23 18:53:00,17.5,-3.2,30.15,WNW,283,0.0,0.0,39,0.00,,---,0.00,VWS V14.01,2013-01-23 23:53:00,
2013-01-23 18:58:00,17.5,-3.2,30.15,WNW,292,0.0,3.0,39,0.00,,---,0.00,VWS V14.01,2013-01-23 23:58:00,
2013-01-23 19:03:00,17.5,-3.2,30.14,WNW,286,0.0,0.0,39,0.00,,---,0.00,VWS V14.01,2013-01-24 00:03:00,
2013-01-23 19:08:00,17.3,-3.4,30.14,WNW,286,0.0,1.0,39,0.00,,---,0.00,VWS V14.01,2013-01-24 00:08:00,
2013-01-23 19:13:00,17.3,-3.4,30.14,WNW,286,0.0,0.0,39,0.00,,---,0.00,VWS V14.01,2013-01-24 00:13:00,
2013-01-23 19:18:00,17.3,-3.4,30.14,WNW,286,0.0,0.0,39,0.00,,---,0.00,VWS V14.01,2013-01-24 00:18:00,
2013-01-23 19:23:00,17.3,-3.4,30.14,WNW,286,0.0,0.0,39,0.00,,---,0.00,VWS V14.01,2013-01-24 00:23:00,
2013-01-23 19:28:00,17.2,-4.0,30.14,WNW,287,0.0,0.0,38,0.00,,---,0.00,VWS V14.01,2013-01-24 00:28:00,
2013-01-23 19:33:00,17.2,-4.0,30.14,WNW,287,0.0,0.0,38,0.00,,---,0.00,VWS V14.01,2013-01-24 00:33:00,
2013-01-23 19:38:00,17.2,-4.0,30.14,WNW,287,0.0,0.0,38,0.00,,---,0.00,VWS V14.01,2013-01-24 00:38:00,
2013-01-23 19:43:00,17.2,-4.0,30.14,WNW,287,0.0,0.0,38,0.00,,---,0.00,VWS V14.01,2013-01-24 00:43:00,
2013-01-23 19:48:00,17.2,-4.0,30.14,WNW,287,0.0,0.0,38,0.00,,---,0.00,VWS V14.01,2013-01-24 00:48:00,
2013-01-23 19:53:00,17.2,-4.0,30.14,WNW,287,0.0,0.0,38,0.00,,---,0.00,VWS V14.01,2013-01-24 00:53:00,
2013-01-23 19:58:00,17.2,-2.4,30.14,WNW,287,0.0,0.0,41,0.00,,---,0.00,VWS V14.01,2013-01-24 00:58:00,
2013-01-23 20:03:00,17.2,-3.0,30.14,WNW,287,0.0,0.0,40,0.00,,---,0.00,VWS V14.01,2013-01-24 01:03:00,
2013-01-23 20:08:00,17.2,-2.4,30.14,WNW,287,0.0,0.0,41,0.00,,---,0.00,VWS V14.01,2013-01-24 01:08:00,
2013-01-23 20:13:00,17.2,-3.0,30.14,WNW,288,0.0,0.0,40,0.00,,---,0.00,VWS V14.01,2013-01-24 01:13:00,
2013-01-23 20:18:00,17.2,-3.5,30.14,WNW,288,0.0,0.0,39,0.00,,---,0.00,VWS V14.01,2013-01-24 01:18:00,
2013-01-23 20:23:00,17.2,-4.0,30.14,WNW,288,0.0,0.0,38,0.00,,---,0.00,VWS V14.01,2013-01-24 01:23:00,
2013-01-23 20:28:00,17.2,-3.5,30.14,WNW,288,0.0,0.0,39,0.00,,---,0.00,VWS V14.01,2013-01-24 01:28:00,
2013-01-23 20:33:00,17.2,-3.0,30.13,WNW,288,0.0,0.0,40,0.00,,---,0.00,VWS V14.01,2013-01-24 01:33:00,
2013-01-23 20:38:00,17.0,-3.1,30.13,WNW,288,0.0,0.0,40,0.00,,---,0.00,VWS V14.01,2013-01-24 01:38:00,
2013-01-23 20:43:00,17.0,-2.6,30.13,WNW,288,0.0,0.0,41,0.00,,---,0.00,VWS V14.01,2013-01-24 01:43:00,
2013-01-23 20:48:00,17.0,-2.6,30.12,WNW,288,0.0,0.0,41,0.00,,---,0.00,VWS V14.01,2013-01-24 01:48:00,
2013-01-23 20:53:00,17.0,-3.1,30.12,WNW,288,0.0,0.0,40,0.00,,---,0.00,VWS V14.01,2013-01-24 01:53:00,
2013-01-23 20:58:00,17.0,-3.1,30.12,WNW,288,0.0,0.0,40,0.00,,---,0.00,VWS V14.01,2013-01-24 01:58:00,
2013-01-23 21:03:00,17.0,-2.6,30.12,WNW,288,0.0,0.0,41,0.00,,---,0.00,VWS V14.01,2013-01-24 02:03:00,
2013-01-23 21:08:00,17.0,-3.1,30.12,WNW,288,0.0,0.0,40,0.00,,---,0.00,VWS V14.01,2013-01-24 02:08:00,
2013-01-23 21:13:00,17.0,-4.2,30.12,WNW,290,0.0,3.0,38,0.00,,---,0.00,VWS V14.01,2013-01-24 02:13:00,
2013-01-23 21:18:00,17.0,-2.6,30.13,WNW,290,0.0,0.0,41,0.00,,---,0.00,VWS V14.01,2013-01-24 02:18:00,
2013-01-23 21:23:00,17.0,-2.6,30.13,WNW,290,0.0,0.0,41,0.00,,---,0.00,VWS V14.01,2013-01-24 02:23:00,
2013-01-23 21:28:00,17.0,-2.1,30.13,WNW,290,0.0,0.0,42,0.00,,---,0.00,VWS V14.01,2013-01-24 02:28:00,
2013-01-23 21:33:00,17.0,-3.7,30.13,WNW,290,0.0,0.0,39,0.00,,---,0.00,VWS V14.01,2013-01-24 02:33:00,
2013-01-23 21:38:00,17.0,-3.1,30.13,WNW,290,0.0,0.0,40,0.00,,---,0.00,VWS V14.01,2013-01-24 02:38:00,
2013-01-23 21:43:00,17.2,-3.5,30.13,WNW,290,0.0,0.0,39,0.00,,---,0.00,VWS V14.01,2013-01-24 02:43:00,
2013-01-23 21:48:00,17.2,-3.5,30.13,WNW,290,0.0,0.0,39,0.00,,---,0.00,VWS V14.01,2013-01-24 02:48:00,
2013-01-23 21:53:00,17.2,-1.9,30.13,WNW,290,0.0,0.0,42,0.00,,---,0.00,VWS V14.01,2013-01-24 02:53:00,
2013-01-23 21:58:00,17.2,-2.4,30.13,WNW,290,0.0,0.0,41,0.00,,---,0.00,VWS V14.01,2013-01-24 02:58:00,
2013-01-23 22:03:00,17.0,-0.2,30.13,WNW,290,0.0,0.0,46,0.00,,---,0.00,VWS V14.01,2013-01-24 03:03:00,
2013-01-23 22:08:00,17.0,-0.2,30.13,WNW,290,0.0,0.0,46,0.00,,---,0.00,VWS V14.01,2013-01-24 03:08:00,
2013-01-23 22:13:00,16.9,1.1,30.13,WNW,290,0.0,0.0,49,0.00,,---,0.00,VWS V14.01,2013-01-24 03:13:00,
2013-01-23 22:18:00,16.9,1.5,30.13,WNW,290,0.0,0.0,50,0.00,,---,0.00,VWS V14.01,2013-01-24 03:18:00,
2013-01-23 22:23:00,16.7,2.1,30.13,WNW,290,0.0,0.0,52,0.00,,---,0.00,VWS V14.01,2013-01-24 03:23:00,
2013-01-23 22:28:00,16.5,2.0,30.13,WNW,290,0.0,0.0,52,0.00,,---,0.00,VWS V14.01,2013-01-24 03:28:00,
2013-01-23 22:33:00,16.4,2.7,30.13,WNW,290,0.0,0.0,54,0.00,,---,0.00,VWS V14.01,2013-01-24 03:33:00,
2013-01-23 22:38:00,16.2,3.3,30.13,WNW,290,0.0,0.0,56,0.00,,---,0.00,VWS V14.01,2013-01-24 03:38:00,
2013-01-23 22:43:00,16.1,4.3,30.13,WNW,290,0.0,0.0,59,0.00,,---,0.00,VWS V14.01,2013-01-24 03:43:00,
2013-01-23 22:48:00,15.9,4.1,30.12,WNW,290,0.0,0.0,59,0.00,,---,0.00,VWS V14.01,2013-01-24 03:48:00,
2013-01-23 22:53:00,15.9,4.1,30.12,WNW,290,0.0,0.0,59,0.00,,---,0.00,VWS V14.01,2013-01-24 03:53:00,
2013-01-23 22:58:00,15.9,4.5,30.12,West,280,2.0,3.0,60,0.00,,---,0.00,VWS V14.01,2013-01-24 03:58:00,
2013-01-23 23:03:00,15.9,5.9,30.12,West,281,0.0,0.0,64,0.00,,---,0.00,VWS V14.01,2013-01-24 04:03:00,
2013-01-23 23:08:00,15.7,6.4,30.12,West,281,0.0,0.0,66,0.00,,---,0.00,VWS V14.01,2013-01-24 04:08:00,
2013-01-23 23:13:00,15.4,6.4,30.12,West,281,0.0,0.0,67,0.00,,---,0.00,VWS V14.01,2013-01-24 04:13:00,
2013-01-23 23:18:00,15.1,6.5,30.11,West,281,0.0,0.0,68,0.00,,---,0.00,VWS V14.01,2013-01-24 04:18:00,
2013-01-23 23:23:00,15.1,7.1,30.11,West,281,0.0,0.0,70,0.00,,---,0.00,VWS V14.01,2013-01-24 04:23:00,
2013-01-23 23:28:00,14.9,7.2,30.11,West,281,0.0,0.0,71,0.00,,---,0.00,VWS V14.01,2013-01-24 04:28:00,
2013-01-23 23:33:00,14.9,7.5,30.10,West,281,0.0,0.0,72,0.00,,---,0.00,VWS V14.01,2013-01-24 04:33:00,
2013-01-23 23:38:00,14.9,8.1,30.10,West,281,0.0,0.0,74,0.00,,---,0.00,VWS V14.01,2013-01-24 04:38:00,
2013-01-23 23:43:00,14.9,8.1,30.10,West,281,0.0,0.0,74,0.00,,---,0.00,VWS V14.01,2013-01-24 04:43:00,
2013-01-23 23:48:00,14.9,8.4,30.10,West,281,0.0,0.0,75,0.00,,---,0.00,VWS V14.01,2013-01-24 04:48:00,
2013-01-23 23:53:00,14.9,8.4,30.10,West,281,0.0,0.0,75,0.00,,---,0.00,VWS V14.01,2013-01-24 04:53:00,
2013-01-23 23:58:00,14.9,8.4,30.10,West,281,0.0,0.0,75,0.00,,---,0.00,VWS V14.01,2013-01-24 04:58:00,